COSMOS 2214

Satellite information

Favourite Embed

Satellite Type and Status

PAYLOADIN ORBIT

Key statistics

Satellite COSMOS 2214 at a glance.

Uptime

11949

Days in orbit

Revolutions

≈ 12.6

Per day

Orbit

LEO

Low Earth Orbit

Inclination

82.6

Latest

Satellite identification and parameters

Extended collection of information and parameters for COSMOS 2214.

Object identification

Identified? True

Debris? False

Object name: COSMOS 2214

International designator: 1992-068D

Object number (NORAD): 22185

Object ID (CCSDS): 22185

Country: COMMONWEALTH OF INDEPENDENT STATES (CIS)

Current information (Y/N): Y

RCS size: LARGE

Orbital parameters

Period: 114.142 minutes

Inclination: 82.5898 deg

SMA: 7794.52 km

Apoapsis: 1422.704 km

Periapsis: 1410.066 km

RAAN: 212.9651 deg

Eccentricy: 0.0008107

Argument of periapsis: 203.3074 deg

Mean anomaly: 276.9201 deg

Mean motion: 12.61591374 rev/day

Mean motion (dot): 0.00000037 rev/day2

B* drag term: 0.00014839 1/REarth

Two-line elements (TLE)

Creation date: July 7, 2025, 2:26 p.m.

Reference frame: TEME

Reference center: EARTH

Epoch: July 7, 2025, 1:59 p.m. UTC

TLE line 0: 0 COSMOS 2214

TLE line 1: 1 22185U 92068D 25188.58298069 .00000037 00000-0 14839-3 0 9992

TLE line 2: 2 22185 82.5898 212.9651 0008107 203.3074 276.9201 12.61591374506424

Live tracking on map

Real-time ground track for satellite COSMOS 2214.

In-orbit conjunctions

A list of the most updated potential collisions computed for object COSMOS 2214.

Target Orbit TCA Probability of collision Miss distance Type
DELTA 1 DEB LEO 2025-04-04 12:11:11 0.0006393168 551.0 (m) DEBRIS

Associated space launch

Second generation store-dump military communications satellite

COSMOS 2214 was lifted into orbit during the mission ‘Tsiklon-3 | Strela-3 83 to 88’, on board a Tsiklon-3 space rocket.

The launch took place on Oct. 20, 1992, 12:58 p.m. from 32/1.

For more information about the launch, click the button.

Launch to space Tsiklon-3 | Strela-3 83 to 88
Tsiklon-3 | Strela-3 83 to 88

Agency: N/A

Status: Launch Successful

Launch date: Oct. 20, 1992, 12:58 p.m. UTC

Rocket: Tsiklon-3

Launch pad: 32/1

Location: Plesetsk Cosmodrome, Russian Federation

...

Latest news about this satellite

There are no fresh news available about this satellite. Check back as we update our databases every day.


Newsletter sign-up

Weekly statistics, charts and insights to help you stay on top of the space industry.